Flag for India Weather past 2 weeks in Amritsar, Punjab, India

Now
95 °F

Passing clouds.


Feels Like: 103 °F
Forecast: 75 / 102 °F
Wind: 8 mph from Northwest

Location: Lahore Airport

Current Time: Aug 23, 2014 at 11:58:28 AM

Latest Report: Aug 23, 2014 at 11:29 AM


Visibility: 4 mi

Pressure: 29.74 "Hg

Humidity: 47%

Dew point: 72 °F

Location of AmritsarLocation

Historic Weather in Amritsar — Graph

°F

Amritsar temperature yesterday

Maximum temperature yesterday: 104 °F (at 3:25 PM)
Minimum temperature yesterday: 81 °F (at 6:30 AM)
Average temperature yesterday: 92 °F

Past Weeks' High & Low Weather Summary

 TemperatureHumidityPressure
High104 °F (Aug 22, 3:25 PM)94% (Aug 8, 10:59 AM)29.80 "Hg (Aug 8, 10:59 AM)
Low77 °F (Aug 8, 10:59 AM)31% (Aug 22, 3:25 PM)29.39 "Hg (Aug 14, 5:25 PM)
Average89 °F62%29.59 "Hg
* Reported Aug 8 10:59 AM — Aug 23 10:59 AM, Amritsar, Weather by CustomWeather, © 2014

Note: Actual official high and low records may vary slightly from our data, if they occured in-between our weather recording intervals... More about our weather records

Advertising

Amritsar weather history for previous 24 hours

 ConditionsComfort  
Time TempWeatherWind HumidityBarometerVisibility
10:59 AM
Aug 23
93 °FClear.8 mph49%29.74 "Hg4 mi
10:25 AM93 °FClear.7 mph49%29.74 "Hg4 mi
9:59 AM91 °FClear.5 mph56%29.74 "Hg4 mi
9:25 AM90 °FClear.3 mph59%29.74 "Hg4 mi
8:55 AM88 °FClear.No wind59%29.71 "Hg4 mi
8:30 AM86 °FClear.No wind62%29.71 "Hg4 mi
8:00 AM82 °FClear.3 mph70%29.71 "Hg3 mi
7:30 AM82 °FClear.No wind70%29.71 "Hg3 mi
7:00 AM81 °FClear.No wind79%29.68 "Hg2 mi
5:30 AM82 °FClear.5 mph74%29.68 "Hg2 mi
5:00 AM84 °FClear.5 mph66%29.68 "Hg2 mi
4:30 AM84 °FClear.7 mph66%29.68 "Hg2 mi
4:00 AM84 °FClear.12 mph70%29.68 "Hg2 mi
3:30 AM86 °FClear.13 mph66%29.68 "Hg2 mi
2:55 AM88 °FPassing clouds.5 mph62%29.68 "Hg2 mi
2:25 AM88 °FPassing clouds.5 mph62%29.68 "Hg2 mi
1:55 AM88 °FPassing clouds.No wind59%29.68 "Hg2 mi
1:25 AM88 °FPassing clouds.No wind59%29.65 "Hg2 mi
12:55 AM88 °FPassing clouds.5 mph59%29.65 "Hg2 mi
12:25 AM88 °FPassing clouds.No wind59%29.65 "Hg2 mi
11:55 PM
Aug 22
90 °FPassing clouds.No wind55%29.65 "Hg2 mi
11:25 PM90 °FPassing clouds.No wind55%29.65 "Hg2 mi
10:55 PM91 °FPassing clouds.No wind52%29.65 "Hg3 mi
10:25 PM91 °FPassing clouds.No wind52%29.65 "Hg3 mi
10:00 PM91 °FPassing clouds.No wind49%29.65 "Hg3 mi
9:25 PM91 °FPassing clouds.3 mph49%29.65 "Hg3 mi
8:55 PM91 °FHaze.No wind49%29.65 "Hg3 mi
8:25 PM93 °FPassing clouds.3 mph47%29.62 "Hg3 mi
7:55 PM93 °FPassing clouds.5 mph47%29.62 "Hg3 mi
7:25 PM95 °FPassing clouds.6 mph44%29.62 "Hg3 mi
6:55 PM97 °FScattered clouds.6 mph42%29.62 "Hg3 mi
6:25 PM99 °FScattered clouds.7 mph39%29.59 "Hg3 mi
5:55 PM99 °FScattered clouds.8 mph42%29.59 "Hg4 mi
5:25 PM99 °FScattered clouds.8 mph42%29.59 "Hg4 mi
4:55 PM99 °FScattered clouds.3 mph42%29.59 "Hg4 mi
3:55 PM104 °FPassing clouds.6 mph31%29.59 "Hg4 mi
3:25 PM104 °FPassing clouds.7 mph31%29.62 "Hg4 mi
2:55 PM102 °FPassing clouds.7 mph33%29.62 "Hg4 mi
2:25 PM102 °FPassing clouds.5 mph33%29.62 "Hg4 mi
1:59 PM100 °FScattered clouds.5 mph35%29.65 "Hg4 mi
1:29 PM100 °FScattered clouds.3 mph35%29.65 "Hg4 mi
12:29 PM99 °FPassing clouds.3 mph37%29.65 "Hg4 mi
11:59 AM97 °FClear.3 mph42%29.65 "Hg4 mi
11:29 AM97 °FClear.6 mph42%29.65 "Hg4 mi
Weather by CustomWeather, © 2014

See weather overviewHow to use our weather pages